Volver al catálogo

JAY-D2

ActivoRadioaficionadoSSO
NORAD 62665·PAYLOAD·🇨🇦 Canada

Lanzado Jan 14, 2025 desde Vandenberg Space Force Base

Loading…

Próximos Pases (próximas 24 horas)

TLE

ActualizadoSource: Space-Track

Época: Sep 14, 2026, 13:27 UTC

1 62665U 25009BJ  26257.56058688  .00002855  00000-0  12488-3 0  9995
2 62665  97.3827 334.5362 0005006  36.2121 323.9454 15.22859379 92333

Sigue JAY-D2 en tiempo real con AllMySat

Download on the App Store